sat.trackr.live / text

‹ back to catalog

PLEIADES NEO 4

NORAD 49070 · 2021-073E

PAYLOAD ACTIVE UNKNOWN

§ Identity

Operator
Country
FR
Launch date
2021-08-17
Launch site
FRGUI
Launch vehicle
Mass (kg)
RCS (m²)

Purposes: earth_obs

External: N2YO · Heavens-Above · Gunter

§ Orbital elements

Epoch: 2026-09-20T04:04:49.853280Z

Period
97.19 min
Inclination
97.8946°
Eccentricity
0.0001462
Mean motion
14.81673519 rev/d
Perigee alt
623.0 km
Apogee alt
625.1 km
Semi-major
7,002.2 km
B*
3.3381e-5
RAAN
336.5673°
Arg perigee
88.4161°
Mean anomaly
271.7219°
Rev number
27,543

§ Raw data

PLEIADES NEO 41 49070U 21073E   26263.17002145  .00000211  00000+0  33381-4 0  99972 49070  97.8946 336.5673 0001462  88.4161 271.7219 14.81673519275434

JSON: /api/v1/satellites/49070 · /tle

For live sub-satellite position, see the globe view (requires WebGL).

§ Visibility from observer

Set your observer location to see the next 7 days of passes ≥ 10°. The values pass through the URL so the page stays shareable.

No JS? Fill the form by hand. The geolocation button needs JavaScript.

§ Radio — SatNOGS DB

ModeDescriptionDownlinkUplink
BPSK S-band telemetry 2.266 GHz

1 transmitter · refreshed weekly from db.satnogs.org